User: anonymous   Login
Location: Unspecified
(0.0000°N, 0.0000°E)
Time: 06:06:01
(UTC+00:00)
Language:

GALILEO 8 (264) - Orbit

View from above orbital plane
View from above orbital plane
View from above satellite
View from above satellite

Ground track
Ground track

The orbit data is extracted from the following two-line orbital elements,

1 40545U 15017B   18231.56872566 -.00000048 +00000-0 +00000-0 0  9995
2 40545 055.9526 059.9939 0002285 139.6205 220.4518 01.70475469021131
Epoch (UTC): 19 August 2018 13:38:57
Eccentricity: 0.0002285
inclination: 55.9526°
perigee height: 23215 km
apogee height: 23228 km
right ascension of ascending node: 59.9939°
argument of perigee: 139.6205°
revolutions per day: 1.70475469
mean anomaly at epoch: 220.4518°
orbit number at epoch: 2113

The dashed part of the orbit path shows where the satellite is in the earth's shadow,  

DLR